Weather History for Coleman, Germany

Change the Weather History Date:

Tuesday, May 8, 2012

  Actual Average Record
Temperature  
Mean Temperature 55 °F -  
Max Temperature 72 °F - - ()
Min Temperature 39 °F - - ()
Degree Days  
Heating Degree Days 10    
Growing Degree Days 5 (Base 50)    
Moisture  
Dew Point 45 °F    
Average Humidity 76    
Maximum Humidity 100    
Minimum Humidity 35    
Precipitation  
Precipitation 0.00 in - - ()
Sea Level Pressure  
Sea Level Pressure 30.00 in    
Wind  
Wind Speed 4 mph ()    
Max Wind Speed 16 mph    
Max Gust Speed 24 mph    
Visibility 5.2 miles    
Events Rain    
T = Trace of Precipitation, MM = Missing Value Source: Averaged Metar Reports

Daily Weather History Graph

Daily Weather History Graph

Search for Another Location

Airport:

Trip Planner

Search our weather history database for the weather conditions in past years. The results will help you decide how hot, cold, wet, or windy it might be!

Date:

Astronomy

May. 08, 2012 Rise Set
Actual Time 5:51 AM CEST 8:54 PM CEST
Civil Twilight 5:14 AM CEST 9:32 PM CEST
Nautical Twilight 4:25 AM CEST 10:21 PM CEST
Astronomical Twilight 3:24 AM CEST 11:22 PM CEST
Moon 11:57 PM CEST (5/8) 7:32 AM CEST (5/8)
Length of Visible Light 16h 17m
Length of Day
15h 02m
Waning Gibbous, 92% of the Moon is Illuminated
May 8
Waning Gibbous
May 12
Last Quarter
May 21
New
May 28
First Quarter
Jun 4
Full

Hourly Weather History & Observations

Time (CEST) Temp. Dew Point Humidity Pressure Visibility Wind Dir Wind Speed Gust Speed Precip Events Conditions
12:58 AM 45.5 °F 45.0 °F 98% 30.06 in 6.2 mi ENE 2.3 mph - N/A   Clear
1:58 AM - - N/A% 30.05 in 5.0 mi Calm Calm - N/A   Clear
2:15 AM 41.0 °F 41.0 °F 100% 30.05 in - East 2.3 mph - N/A   Partly Cloudy
2:16 AM 41.0 °F 41.0 °F 100% 30.05 in 1.6 mi ENE 2.3 mph - N/A   Partly Cloudy
2:18 AM 42.8 °F 42.8 °F 100% 30.05 in 1.4 mi NNE 1.2 mph - N/A   Partly Cloudy
2:23 AM 44.6 °F 44.6 °F 100% 30.05 in 1.5 mi Variable 1.2 mph - N/A   Scattered Clouds
2:25 AM 44.6 °F 44.6 °F 100% 30.05 in 3.1 mi East 1.2 mph - N/A   Scattered Clouds
2:58 AM 44.1 °F 43.0 °F 96% 30.06 in 6.2 mi East 1.2 mph - N/A   Scattered Clouds
3:58 AM 42.3 °F 42.3 °F 100% 30.06 in 6.2 mi Variable 1.2 mph - N/A   Mostly Cloudy
4:58 AM 41.7 °F 41.0 °F 97% 30.05 in 5.6 mi East 1.2 mph - N/A   Clear
5:23 AM 39.2 °F 39.2 °F 100% 30.03 in - NE 1.2 mph - N/A   Partly Cloudy
5:27 AM 39.2 °F 39.2 °F 100% 30.03 in 3.1 mi ENE 1.2 mph - N/A   Partly Cloudy
5:30 AM 39.2 °F 39.2 °F 100% 30.02 in - Variable 1.2 mph - N/A   Partly Cloudy
5:32 AM 39.2 °F 39.2 °F 100% 30.02 in 2.5 mi Calm Calm - N/A   Partly Cloudy
5:38 AM - - N/A% 30.02 in 3.1 mi Calm Calm - N/A   Partly Cloudy
5:58 AM 40.6 °F 40.3 °F 99% 30.04 in 3.7 mi Calm Calm - N/A   Partly Cloudy
6:10 AM 41.0 °F 39.2 °F 93% 30.03 in - North 1.2 mph - N/A   Partly Cloudy
6:21 AM 39.2 °F 39.2 °F 100% 30.03 in 3.1 mi ENE 2.3 mph - N/A   Partly Cloudy
6:58 AM 39.7 °F 39.4 °F 99% 30.05 in 5.0 mi South 1.2 mph - N/A   Clear
7:58 AM 48.0 °F 47.8 °F 99% 30.05 in 3.7 mi WNW 1.2 mph - N/A   Clear
8:58 AM 52.9 °F 49.3 °F 88% 30.03 in 6.2 mi Variable 1.2 mph - N/A   Clear
9:58 AM 58.5 °F 48.2 °F 69% 30.03 in 6.2 mi SSE 6.9 mph - N/A   Clear
10:58 AM 61.3 °F 48.0 °F 62% 30.01 in 6.2 mi South 8.1 mph - N/A   Clear
11:58 AM 64.0 °F 43.7 °F 48% 29.99 in 6.2 mi SSE 10.4 mph 13.8 mph N/A   Clear
12:58 PM 66.4 °F 40.1 °F 38% 29.98 in 6.2 mi SSE 5.8 mph 16.1 mph N/A   Clear
1:58 PM 69.1 °F 43.7 °F 40% 29.96 in 6.2 mi South 13.8 mph 18.4 mph N/A   Clear
2:58 PM 70.7 °F 41.9 °F 35% 29.94 in 6.2 mi SSE 10.4 mph 20.7 mph N/A   Clear
3:58 PM 71.6 °F 42.3 °F 35% 29.93 in 6.2 mi South 10.4 mph 24.2 mph N/A   Partly Cloudy
4:58 PM 71.2 °F 42.6 °F 36% 29.93 in 6.2 mi SSW 12.7 mph 19.6 mph N/A   Mostly Cloudy
5:58 PM 70.0 °F 43.2 °F 38% 29.93 in 6.2 mi SSW 16.1 mph 20.7 mph N/A   Mostly Cloudy
6:58 PM 69.4 °F 44.6 °F 41% 29.93 in 6.2 mi SSW 10.4 mph - N/A   Mostly Cloudy
7:58 PM 68.4 °F 44.1 °F 41% 29.94 in 6.2 mi SSW 16.1 mph - N/A   Mostly Cloudy
8:26 PM 64.4 °F 48.2 °F 56% 29.93 in 6.2 mi SW 10.4 mph 20.7 mph N/A Rain Light Rain
8:42 PM 64.4 °F 48.2 °F 56% 29.94 in 6.2 mi SSW 12.7 mph 24.2 mph N/A   Overcast
8:58 PM 63.5 °F 48.9 °F 59% 29.95 in 6.2 mi SSW 13.8 mph 21.9 mph N/A   Overcast
9:27 PM 62.6 °F 50.0 °F 63% 29.95 in 6.2 mi SSW 15.0 mph 24.2 mph N/A Rain Light Rain
9:58 PM 60.6 °F 50.9 °F 70% 29.96 in 6.2 mi SSW 11.5 mph - N/A   Light Drizzle
10:23 PM 60.8 °F 51.8 °F 72% 29.95 in 6.2 mi South 11.5 mph - N/A   Overcast
10:30 PM 60.8 °F 51.8 °F 72% 29.95 in 6.2 mi South 15.0 mph - N/A Rain Light Rain Showers
10:58 PM 59.0 °F 52.0 °F 78% 29.96 in 6.2 mi SSE 8.1 mph - N/A Rain Light Rain Showers
10:59 PM 59.0 °F 51.8 °F 77% 29.95 in 6.2 mi SSE 6.9 mph - N/A   Mostly Cloudy
11:44 PM 59.0 °F 51.8 °F 77% 29.95 in 6.2 mi Variable 5.8 mph - N/A Rain Light Rain
11:58 PM 58.5 °F 53.1 °F 82% 29.96 in 6.2 mi SSE 5.8 mph - N/A Rain Light Rain